Tracking 25995 objects as of 19-Aug-2022
HD Live streaming from Space Station
objects crossing your sky now

THOR DELTA 1 DEB

Track THOR DELTA 1 DEB now!
10-day predictions


NORAD ID: 33515
Int'l Code: 1971-024F
Perigee: 1,301.4 km
Apogee: 1,345.4 km
Inclination: 88.1 °
Period: 111.9 minutes
Semi major axis: 7694 km
RCS: 0.009 m2 (small)
Launch date: April 1, 1971
Source: United States (US)
Launch site: AIR FORCE WESTERN TEST RANGE (AFWTR)

Note: This is SATELLITE DEBRIS
aabbcc
Your satellite tracking list
Your tracking list is empty




NASA's NSSDC Master Catalog

Two Line Element Set (TLE):
1 33515U 71024F   22230.41086795 -.00000400  00000-0 -16564-2 0  9990
2 33515  88.1369 105.1380 0028580 255.9618 279.0161 12.86299656777417
Source of the keplerian elements: AFSPC